Year,Month,Day,Hour,Minute,Value (Times are PST for temperature in C)
2008,06,16,00,00,12.40
2008,06,16,00,01,12.40
2008,06,16,00,02,12.30
2008,06,16,00,03,12.30
2008,06,16,00,04,12.20
2008,06,16,00,05,12.10
2008,06,16,00,06,12.10
2008,06,16,00,07,12.00
2008,06,16,00,08,12.00
2008,06,16,00,09,11.90
2008,06,16,00,10,11.90
2008,06,16,00,11,11.80
2008,06,16,00,12,11.80
2008,06,16,00,13,11.80
2008,06,16,00,14,11.80
2008,06,16,00,15,11.80
2008,06,16,00,16,11.70
2008,06,16,00,17,11.70
2008,06,16,00,18,11.60
2008,06,16,00,19,11.60
2008,06,16,00,20,11.60
2008,06,16,00,21,11.60
2008,06,16,00,22,11.60
2008,06,16,00,23,11.60
2008,06,16,00,24,11.60
2008,06,16,00,25,11.60
2008,06,16,00,26,11.60
2008,06,16,00,27,11.60
2008,06,16,00,28,11.60
2008,06,16,00,29,11.60
2008,06,16,00,30,11.60
2008,06,16,00,31,11.60
2008,06,16,00,32,11.60
2008,06,16,00,33,11.60
2008,06,16,00,34,11.60
2008,06,16,00,35,11.60
2008,06,16,00,36,11.60
2008,06,16,00,37,11.60
2008,06,16,00,38,11.50
2008,06,16,00,39,11.40
2008,06,16,00,40,11.40
2008,06,16,00,41,11.40
2008,06,16,00,42,11.40
2008,06,16,00,43,11.40
2008,06,16,00,44,11.40
2008,06,16,00,45,11.40
2008,06,16,00,46,11.40
2008,06,16,00,47,11.40
2008,06,16,00,48,11.40
2008,06,16,00,49,11.40
2008,06,16,00,50,11.40
2008,06,16,00,51,11.40
2008,06,16,00,52,11.40
2008,06,16,01,10,10.70
2008,06,16,01,11,10.70
2008,06,16,01,12,10.70
2008,06,16,01,13,10.60
2008,06,16,01,14,10.60
2008,06,16,01,15,10.60
2008,06,16,01,16,10.60
2008,06,16,01,17,10.60
2008,06,16,01,18,10.60
2008,06,16,01,19,10.60
2008,06,16,01,20,10.60
2008,06,16,01,21,10.60
2008,06,16,01,22,10.60
2008,06,16,01,23,10.60
2008,06,16,01,24,10.60
2008,06,16,01,25,10.60
2008,06,16,01,26,10.60
2008,06,16,01,27,10.60
2008,06,16,01,28,10.60
2008,06,16,01,29,10.60
2008,06,16,01,30,10.60
2008,06,16,01,31,10.60
2008,06,16,01,32,10.60
2008,06,16,01,33,10.60
2008,06,16,01,34,10.60
2008,06,16,01,35,10.60
2008,06,16,01,36,10.60
2008,06,16,01,37,10.60
2008,06,16,01,38,10.60
2008,06,16,01,39,10.60
2008,06,16,01,40,10.50
2008,06,16,01,41,10.40
2008,06,16,01,42,10.40
2008,06,16,01,43,10.40
2008,06,16,01,44,10.40
2008,06,16,01,45,10.40
2008,06,16,01,46,10.40
2008,06,16,01,47,10.40
2008,06,16,01,48,10.40
2008,06,16,01,49,10.40
2008,06,16,01,50,10.40
2008,06,16,01,51,10.30
2008,06,16,01,52,10.10
2008,06,16,01,53,10.10
2008,06,16,01,54,10.10
2008,06,16,01,55,10.10
2008,06,16,01,56,10.10
2008,06,16,01,57,10.10
2008,06,16,01,58,10.00
2008,06,16,01,59,9.90
2008,06,16,02,00,9.90
2008,06,16,02,01,9.90
2008,06,16,02,02,9.90
2008,06,16,02,03,9.90
2008,06,16,02,04,9.90
2008,06,16,02,05,9.80
2008,06,16,02,06,9.80
2008,06,16,02,07,9.80
2008,06,16,02,08,9.80
2008,06,16,02,09,9.70
2008,06,16,02,10,9.70
2008,06,16,02,11,9.70
2008,06,16,02,12,9.70
2008,06,16,02,13,9.70
2008,06,16,02,14,9.70
2008,06,16,02,15,9.70
2008,06,16,02,16,9.70
2008,06,16,02,17,9.70
2008,06,16,02,18,9.70
2008,06,16,02,19,9.70
2008,06,16,02,20,9.70
2008,06,16,02,21,9.70
2008,06,16,02,22,9.70
2008,06,16,02,23,9.60
2008,06,16,02,24,9.60
2008,06,16,02,25,9.60
2008,06,16,02,26,9.60
2008,06,16,02,27,9.60
2008,06,16,02,28,9.50
2008,06,16,02,29,9.50
2008,06,16,02,30,9.50
2008,06,16,02,31,9.50
2008,06,16,02,32,9.40
2008,06,16,02,33,9.40
2008,06,16,02,34,9.40
2008,06,16,02,35,9.40
2008,06,16,02,36,9.40
2008,06,16,02,37,9.40
2008,06,16,02,38,9.40
2008,06,16,02,39,9.40
2008,06,16,02,40,9.30
2008,06,16,02,41,9.30
2008,06,16,02,42,9.30
2008,06,16,02,43,9.30
2008,06,16,02,44,9.30
2008,06,16,02,45,9.30
2008,06,16,02,46,9.30
2008,06,16,02,47,9.20
2008,06,16,02,48,9.20
2008,06,16,02,49,9.20
2008,06,16,02,50,9.20
2008,06,16,02,51,9.20
2008,06,16,02,52,9.10
2008,06,16,02,53,9.10
2008,06,16,02,54,9.10
2008,06,16,02,55,9.00
2008,06,16,02,56,9.00
2008,06,16,02,57,9.00
2008,06,16,02,58,9.00
2008,06,16,02,59,9.00
2008,06,16,03,00,9.00
2008,06,16,03,01,8.90
2008,06,16,03,02,8.90
2008,06,16,03,03,8.90
2008,06,16,03,04,8.90
2008,06,16,03,05,8.90
2008,06,16,03,06,8.90
2008,06,16,03,07,8.90
2008,06,16,03,08,8.90
2008,06,16,03,09,8.80
2008,06,16,03,10,8.80
2008,06,16,03,11,8.80
2008,06,16,03,12,8.80
2008,06,16,03,13,8.80
2008,06,16,03,14,8.80
2008,06,16,03,15,8.80
2008,06,16,03,16,8.80
2008,06,16,03,17,8.70
2008,06,16,03,18,8.70
2008,06,16,03,19,8.70
2008,06,16,03,20,8.70
2008,06,16,03,21,8.70
2008,06,16,03,22,8.70
2008,06,16,03,23,8.70
2008,06,16,03,24,8.70
2008,06,16,03,25,8.70
2008,06,16,03,26,8.70
2008,06,16,03,27,8.70
2008,06,16,03,28,8.70
2008,06,16,03,29,8.70
2008,06,16,03,30,8.70
2008,06,16,03,31,8.70
2008,06,16,03,32,8.70
2008,06,16,03,33,8.70
2008,06,16,03,34,8.70
2008,06,16,03,35,8.70
2008,06,16,03,36,8.70
2008,06,16,03,37,8.70
2008,06,16,03,38,8.70
2008,06,16,03,39,8.70
2008,06,16,03,40,8.70
2008,06,16,03,41,8.70
2008,06,16,03,42,8.70
2008,06,16,03,43,8.70
2008,06,16,03,44,8.70
2008,06,16,03,45,8.70
2008,06,16,03,46,8.70
2008,06,16,03,47,8.70
2008,06,16,03,48,8.70
2008,06,16,03,49,8.60
2008,06,16,03,50,8.60
2008,06,16,03,51,8.60
2008,06,16,03,52,8.60
2008,06,16,03,53,8.60
2008,06,16,03,54,8.60
2008,06,16,03,55,8.60
2008,06,16,03,56,8.50
2008,06,16,03,57,8.50
2008,06,16,03,58,8.50
2008,06,16,03,59,8.50
2008,06,16,04,00,8.50
2008,06,16,04,01,8.50
2008,06,16,04,02,8.50
2008,06,16,04,03,8.50
2008,06,16,04,04,8.50
2008,06,16,04,05,8.50
2008,06,16,04,06,8.50
2008,06,16,04,07,8.40
2008,06,16,04,08,8.40
2008,06,16,04,09,8.40
2008,06,16,04,10,8.40
2008,06,16,04,11,8.30
2008,06,16,04,12,8.30
2008,06,16,04,13,8.30
2008,06,16,04,14,8.30
2008,06,16,04,15,8.20
2008,06,16,04,16,8.20
2008,06,16,04,17,8.20
2008,06,16,04,18,8.20
2008,06,16,04,19,8.20
2008,06,16,04,20,8.20
2008,06,16,04,21,8.20
2008,06,16,04,22,8.20
2008,06,16,04,23,8.20
2008,06,16,04,24,8.20
2008,06,16,04,25,8.20
2008,06,16,04,26,8.20
2008,06,16,04,27,8.20
2008,06,16,04,28,8.10
2008,06,16,04,29,8.10
2008,06,16,04,30,8.10
2008,06,16,04,31,8.10
2008,06,16,04,32,8.10
2008,06,16,04,33,8.00
2008,06,16,04,34,8.00
2008,06,16,04,35,8.00
2008,06,16,04,36,8.00
2008,06,16,04,37,8.00
2008,06,16,04,38,8.00
2008,06,16,04,39,8.00
2008,06,16,04,40,8.00
2008,06,16,04,41,8.00
2008,06,16,04,42,8.00
2008,06,16,04,43,8.00
2008,06,16,04,44,8.00
2008,06,16,04,45,8.00
2008,06,16,04,46,8.00
2008,06,16,04,47,8.00
2008,06,16,04,48,8.00
2008,06,16,04,49,8.00
2008,06,16,04,50,8.00
2008,06,16,04,51,8.00
2008,06,16,04,52,8.00
2008,06,16,04,53,8.00
2008,06,16,04,54,8.00
2008,06,16,04,55,8.00
2008,06,16,04,56,8.00
2008,06,16,04,57,8.00
2008,06,16,04,58,8.00
2008,06,16,04,59,8.00
2008,06,16,05,00,8.00
2008,06,16,05,01,8.00
2008,06,16,05,02,8.00
2008,06,16,05,03,8.00
2008,06,16,05,04,8.00
2008,06,16,05,05,8.00
2008,06,16,05,06,8.00
2008,06,16,05,07,8.00
2008,06,16,05,08,8.00
2008,06,16,05,09,8.00
2008,06,16,05,10,8.00
2008,06,16,05,11,8.00
2008,06,16,05,12,8.00
2008,06,16,05,13,8.00
2008,06,16,05,14,8.00
2008,06,16,05,15,8.00
2008,06,16,05,16,8.00
2008,06,16,05,17,8.00
2008,06,16,05,18,8.00
2008,06,16,05,19,8.00
2008,06,16,05,20,8.00
2008,06,16,05,21,8.00
2008,06,16,05,22,8.00
2008,06,16,05,23,8.00
2008,06,16,05,24,7.90
2008,06,16,05,25,7.90
2008,06,16,05,26,7.90
2008,06,16,05,27,7.90
2008,06,16,05,28,7.80
2008,06,16,05,29,7.80
2008,06,16,05,30,7.80
2008,06,16,05,31,7.80
2008,06,16,05,32,7.80
2008,06,16,05,33,7.80
2008,06,16,05,34,7.80
2008,06,16,05,35,7.80
2008,06,16,05,36,7.80
2008,06,16,05,37,7.80
2008,06,16,05,38,7.80
2008,06,16,05,39,7.80
2008,06,16,05,40,7.80
2008,06,16,05,41,7.80
2008,06,16,05,42,7.80
2008,06,16,05,43,7.90
2008,06,16,05,44,7.90
2008,06,16,05,45,7.90
2008,06,16,05,46,8.00
2008,06,16,05,47,8.00
2008,06,16,05,48,8.10
2008,06,16,05,49,8.10
2008,06,16,05,50,8.20
2008,06,16,05,51,8.20
2008,06,16,05,52,8.20
2008,06,16,05,53,8.20
2008,06,16,05,54,8.20
2008,06,16,05,55,8.30
2008,06,16,05,56,8.30
2008,06,16,05,57,8.30
2008,06,16,05,58,8.30
2008,06,16,05,59,8.30
2008,06,16,06,00,8.30
2008,06,16,06,01,8.40
2008,06,16,06,02,8.40
2008,06,16,06,03,8.40
2008,06,16,06,04,8.40
2008,06,16,06,05,8.40
2008,06,16,06,06,8.40
2008,06,16,06,07,8.40
2008,06,16,06,08,8.40
2008,06,16,06,09,8.50
2008,06,16,06,10,8.50
2008,06,16,06,11,8.50
2008,06,16,06,12,8.50
2008,06,16,06,13,8.60
2008,06,16,06,14,8.60
2008,06,16,06,15,8.60
2008,06,16,06,16,8.60
2008,06,16,06,17,8.60
2008,06,16,06,18,8.60
2008,06,16,06,19,8.70
2008,06,16,06,20,8.70
2008,06,16,06,21,8.70
2008,06,16,06,22,8.70
2008,06,16,06,23,8.70
2008,06,16,06,24,8.70
2008,06,16,06,25,8.80
2008,06,16,06,26,8.80
2008,06,16,06,27,8.80
2008,06,16,06,28,8.90
2008,06,16,06,29,8.90
2008,06,16,06,30,8.90
2008,06,16,06,31,9.00
2008,06,16,06,32,9.00
2008,06,16,06,33,9.10
2008,06,16,06,34,9.20
2008,06,16,06,35,9.20
2008,06,16,06,36,9.20
2008,06,16,06,37,9.30
2008,06,16,06,38,9.50
2008,06,16,06,39,9.60
2008,06,16,06,40,9.70
2008,06,16,06,41,9.80
2008,06,16,06,42,9.90
2008,06,16,06,43,9.90
2008,06,16,06,44,10.10
2008,06,16,06,45,10.10
2008,06,16,06,46,10.10
2008,06,16,06,47,10.20
2008,06,16,06,48,10.20
2008,06,16,06,49,10.20
2008,06,16,06,50,10.30
2008,06,16,06,51,10.30
2008,06,16,06,52,10.40
2008,06,16,06,53,10.40
2008,06,16,06,54,10.40
2008,06,16,06,55,10.40
2008,06,16,06,56,10.50
2008,06,16,06,57,10.60
2008,06,16,06,58,10.60
2008,06,16,06,59,10.60
2008,06,16,07,00,10.60
2008,06,16,07,01,10.70
2008,06,16,07,02,10.70
2008,06,16,07,03,10.80
2008,06,16,07,04,10.80
2008,06,16,07,05,10.90
2008,06,16,07,06,10.90
2008,06,16,07,07,10.90
2008,06,16,07,08,11.00
2008,06,16,07,09,11.10
2008,06,16,07,10,11.10
2008,06,16,07,11,11.10
2008,06,16,07,12,11.10
2008,06,16,07,13,11.10
2008,06,16,07,14,11.20
2008,06,16,07,15,11.60
2008,06,16,07,16,11.70
2008,06,16,07,17,11.80
2008,06,16,07,18,11.90
2008,06,16,07,19,12.00
2008,06,16,07,20,12.10
2008,06,16,07,21,12.20
2008,06,16,07,22,12.30
2008,06,16,07,23,12.30
2008,06,16,07,24,12.30
2008,06,16,07,25,12.50
2008,06,16,07,26,12.50
2008,06,16,07,27,12.50
2008,06,16,07,28,12.50
2008,06,16,07,29,12.60
2008,06,16,07,30,12.60
2008,06,16,07,31,12.60
2008,06,16,07,32,12.70
2008,06,16,07,33,12.90
2008,06,16,07,34,13.00
2008,06,16,07,35,13.20
2008,06,16,07,36,13.30
2008,06,16,07,37,13.40
2008,06,16,07,38,13.50
2008,06,16,07,39,13.60
2008,06,16,07,40,13.60
2008,06,16,07,41,13.70
2008,06,16,07,42,13.70
2008,06,16,07,43,13.80
2008,06,16,07,44,13.90
2008,06,16,07,45,14.00
2008,06,16,07,46,14.00
2008,06,16,07,47,14.00
2008,06,16,07,48,14.10
2008,06,16,07,49,14.10
2008,06,16,07,50,14.20
2008,06,16,07,51,14.20
2008,06,16,07,52,14.20
2008,06,16,07,53,14.20
2008,06,16,07,54,14.20
2008,06,16,07,55,14.20
2008,06,16,07,56,14.20
2008,06,16,07,57,14.20
2008,06,16,07,58,14.20
2008,06,16,07,59,14.30
2008,06,16,08,00,14.30
2008,06,16,08,01,14.30
2008,06,16,08,02,14.30
2008,06,16,08,03,14.30
2008,06,16,08,04,14.30
2008,06,16,08,05,14.30
2008,06,16,08,06,14.30
2008,06,16,08,07,14.30
2008,06,16,08,08,14.30
2008,06,16,08,09,14.30
2008,06,16,08,25,15.10
2008,06,16,08,26,15.10
2008,06,16,08,27,15.20
2008,06,16,08,28,15.20
2008,06,16,08,29,15.30
2008,06,16,08,30,15.30
2008,06,16,08,31,15.30
2008,06,16,08,32,15.40
2008,06,16,08,33,15.50
2008,06,16,08,34,15.50
2008,06,16,08,35,15.60
2008,06,16,08,36,15.60
2008,06,16,08,37,15.50
2008,06,16,08,38,15.40
2008,06,16,08,39,15.30
2008,06,16,08,40,15.30
2008,06,16,08,41,15.30
2008,06,16,08,42,15.20
2008,06,16,08,43,15.00
2008,06,16,08,44,14.90
2008,06,16,08,45,14.90
2008,06,16,08,46,14.90
2008,06,16,08,47,15.00
2008,06,16,08,48,15.00
2008,06,16,08,49,14.90
2008,06,16,08,50,14.90
2008,06,16,08,51,14.90
2008,06,16,08,52,14.90
2008,06,16,08,53,15.10
2008,06,16,08,54,15.20
2008,06,16,08,55,15.30
2008,06,16,08,56,15.30
2008,06,16,08,57,15.40
2008,06,16,08,58,15.50
2008,06,16,08,59,15.50
2008,06,16,09,00,15.50
2008,06,16,09,01,15.40
2008,06,16,09,02,15.40
2008,06,16,09,03,15.40
2008,06,16,09,04,15.40
2008,06,16,09,05,15.40
2008,06,16,09,06,15.40
2008,06,16,09,07,15.40
2008,06,16,09,08,15.40
2008,06,16,09,09,15.40
2008,06,16,09,10,15.30
2008,06,16,09,11,15.20
2008,06,16,09,12,15.20
2008,06,16,09,13,15.20
2008,06,16,09,14,15.20
2008,06,16,09,15,15.20
2008,06,16,09,16,15.30
2008,06,16,09,17,15.30
2008,06,16,09,18,15.40
2008,06,16,09,19,15.40
2008,06,16,09,20,15.40
2008,06,16,09,21,15.40
2008,06,16,09,22,15.40
2008,06,16,09,23,15.40
2008,06,16,09,24,15.50
2008,06,16,09,25,15.50
2008,06,16,09,26,15.60
2008,06,16,09,27,15.70
2008,06,16,09,28,15.70
2008,06,16,09,29,15.80
2008,06,16,09,30,15.90
2008,06,16,09,31,16.00
2008,06,16,09,32,16.10
2008,06,16,09,33,16.10
2008,06,16,09,34,16.10
2008,06,16,09,35,16.00
2008,06,16,09,36,15.80
2008,06,16,09,37,15.80
2008,06,16,09,38,15.80
2008,06,16,09,39,15.80
2008,06,16,09,40,15.80
2008,06,16,09,41,15.80
2008,06,16,09,42,15.80
2008,06,16,09,43,15.90
2008,06,16,09,44,16.00
2008,06,16,09,45,16.10
2008,06,16,09,46,16.00
2008,06,16,09,47,15.90
2008,06,16,09,48,15.90
2008,06,16,09,49,15.90
2008,06,16,09,50,15.80
2008,06,16,09,51,15.80
2008,06,16,09,52,15.80
2008,06,16,09,53,15.90
2008,06,16,09,54,15.90
2008,06,16,09,55,15.90
2008,06,16,09,56,16.10
2008,06,16,09,57,16.10
2008,06,16,09,58,15.90
2008,06,16,09,59,15.80
2008,06,16,10,00,15.80
2008,06,16,10,01,15.80
2008,06,16,10,02,15.80
2008,06,16,10,03,15.80
2008,06,16,10,04,15.80
2008,06,16,10,05,15.80
2008,06,16,10,06,15.90
2008,06,16,10,07,15.90
2008,06,16,10,08,15.90
2008,06,16,10,09,15.90
2008,06,16,10,10,15.80
2008,06,16,10,11,15.80
2008,06,16,10,12,15.80
2008,06,16,10,13,15.80
2008,06,16,10,14,15.90
2008,06,16,10,15,15.90
2008,06,16,10,16,16.00
2008,06,16,10,17,16.10
2008,06,16,10,18,16.10
2008,06,16,10,19,16.30
2008,06,16,10,20,16.30
2008,06,16,10,21,16.30
2008,06,16,10,22,16.30
2008,06,16,10,23,16.20
2008,06,16,10,24,16.30
2008,06,16,10,25,16.40
2008,06,16,10,26,16.40
2008,06,16,10,27,16.30
2008,06,16,10,28,16.30
2008,06,16,10,29,16.20
2008,06,16,10,30,16.20
2008,06,16,10,31,16.30
2008,06,16,10,32,16.40
2008,06,16,10,33,16.40
2008,06,16,10,34,16.40
2008,06,16,10,35,16.40
2008,06,16,10,36,16.40
2008,06,16,10,37,16.40
2008,06,16,10,38,16.50
2008,06,16,10,39,16.70
2008,06,16,10,40,16.80
2008,06,16,10,41,17.00
2008,06,16,10,42,17.10
2008,06,16,10,43,17.20
2008,06,16,10,44,17.30
2008,06,16,10,45,17.30
2008,06,16,10,46,17.40
2008,06,16,10,47,17.50
2008,06,16,10,48,17.70
2008,06,16,10,49,17.70
2008,06,16,10,50,17.70
2008,06,16,10,51,17.50
2008,06,16,10,52,17.30
2008,06,16,10,53,17.30
2008,06,16,10,54,17.30
2008,06,16,10,55,17.30
2008,06,16,10,56,17.30
2008,06,16,10,57,17.30
2008,06,16,10,58,17.30
2008,06,16,10,59,17.30
2008,06,16,11,00,17.20
2008,06,16,11,01,17.10
2008,06,16,11,02,16.90
2008,06,16,11,03,16.90
2008,06,16,11,04,16.90
2008,06,16,11,05,16.80
2008,06,16,11,06,16.80
2008,06,16,11,07,16.70
2008,06,16,11,08,16.70
2008,06,16,11,09,16.70
2008,06,16,11,10,16.80
2008,06,16,11,11,16.90
2008,06,16,11,12,16.90
2008,06,16,11,13,16.90
2008,06,16,11,14,16.90
2008,06,16,11,15,16.70
2008,06,16,11,16,16.70
2008,06,16,11,17,16.70
2008,06,16,11,18,16.60
2008,06,16,11,19,16.60
2008,06,16,11,20,16.60
2008,06,16,11,21,16.60
2008,06,16,11,22,16.60
2008,06,16,11,23,16.70
2008,06,16,11,24,16.80
2008,06,16,11,25,17.00
2008,06,16,11,26,17.20
2008,06,16,11,27,17.40
2008,06,16,11,28,17.40
2008,06,16,11,29,17.50
2008,06,16,11,30,17.50
2008,06,16,11,31,17.40
2008,06,16,11,32,17.20
2008,06,16,11,33,17.10
2008,06,16,11,34,17.10
2008,06,16,11,35,17.10
2008,06,16,11,36,17.10
2008,06,16,11,37,17.00
2008,06,16,11,38,17.20
2008,06,16,11,39,17.30
2008,06,16,11,40,17.30
2008,06,16,11,41,17.20
2008,06,16,11,42,17.00
2008,06,16,11,43,16.90
2008,06,16,11,44,17.00
2008,06,16,11,45,16.90
2008,06,16,11,46,16.90
2008,06,16,11,47,16.90
2008,06,16,11,48,17.10
2008,06,16,11,49,17.30
2008,06,16,11,50,17.30
2008,06,16,11,51,17.30
2008,06,16,11,52,17.30
2008,06,16,11,53,17.30
2008,06,16,11,54,17.30
2008,06,16,11,55,17.20
2008,06,16,11,56,17.20
2008,06,16,11,57,17.30
2008,06,16,11,58,17.50
2008,06,16,11,59,17.70
2008,06,16,12,00,17.80
2008,06,16,12,01,17.80
2008,06,16,12,02,17.70
2008,06,16,12,03,17.60
2008,06,16,12,04,17.60
2008,06,16,12,05,17.60
2008,06,16,12,06,17.70
2008,06,16,12,07,17.60
2008,06,16,12,08,17.60
2008,06,16,12,09,17.60
2008,06,16,12,10,17.60
2008,06,16,12,11,17.60
2008,06,16,12,12,17.60
2008,06,16,12,13,17.40
2008,06,16,12,14,17.30
2008,06,16,12,15,17.30
2008,06,16,12,16,17.30
2008,06,16,12,17,17.30
2008,06,16,12,18,17.40
2008,06,16,12,19,17.40
2008,06,16,12,20,17.50
2008,06,16,12,21,17.50
2008,06,16,12,22,17.50
2008,06,16,12,23,17.60
2008,06,16,12,24,17.70
2008,06,16,12,25,17.90
2008,06,16,12,26,17.80
2008,06,16,12,27,17.70
2008,06,16,12,28,17.60
2008,06,16,12,29,17.70
2008,06,16,12,30,17.90
2008,06,16,12,31,17.90
2008,06,16,12,32,17.90
2008,06,16,12,33,17.80
2008,06,16,12,34,17.70
2008,06,16,12,35,17.70
2008,06,16,12,36,17.70
2008,06,16,12,37,17.60
2008,06,16,12,38,17.60
2008,06,16,12,39,17.50
2008,06,16,12,40,17.40
2008,06,16,12,41,17.40
2008,06,16,12,42,17.40
2008,06,16,12,43,17.30
2008,06,16,12,44,17.40
2008,06,16,12,45,17.40
2008,06,16,12,46,17.40
2008,06,16,12,47,17.40
2008,06,16,12,48,17.30
2008,06,16,12,49,17.20
2008,06,16,12,50,17.20
2008,06,16,12,51,17.40
2008,06,16,12,52,17.70
2008,06,16,12,53,17.90
2008,06,16,12,54,17.90
2008,06,16,12,55,17.90
2008,06,16,12,56,17.90
2008,06,16,12,57,17.90
2008,06,16,12,58,17.90
2008,06,16,12,59,17.90
2008,06,16,13,00,17.80
2008,06,16,13,01,17.70
2008,06,16,13,02,17.70
2008,06,16,13,03,17.60
2008,06,16,13,04,17.50
2008,06,16,13,05,17.40
2008,06,16,13,06,17.40
2008,06,16,13,07,17.40
2008,06,16,13,08,17.60
2008,06,16,13,09,17.70
2008,06,16,13,10,17.80
2008,06,16,13,11,17.90
2008,06,16,13,12,17.90
2008,06,16,13,13,17.80
2008,06,16,13,14,17.80
2008,06,16,13,15,17.80
2008,06,16,13,16,17.80
2008,06,16,13,17,17.60
2008,06,16,13,18,17.50
2008,06,16,13,19,17.40
2008,06,16,13,20,17.30
2008,06,16,13,21,17.30
2008,06,16,13,22,17.30
2008,06,16,13,23,17.40
2008,06,16,13,24,17.50
2008,06,16,13,25,17.50
2008,06,16,13,26,17.50
2008,06,16,13,27,17.60
2008,06,16,13,28,17.70
2008,06,16,13,29,17.70
2008,06,16,13,30,17.60
2008,06,16,13,31,17.60
2008,06,16,13,32,17.70
2008,06,16,13,33,17.80
2008,06,16,13,34,17.90
2008,06,16,13,35,17.80
2008,06,16,13,36,17.90
2008,06,16,13,37,17.90
2008,06,16,13,38,17.90
2008,06,16,13,39,17.90
2008,06,16,13,40,17.90
2008,06,16,13,41,17.90
2008,06,16,13,42,17.70
2008,06,16,13,43,17.50
2008,06,16,13,44,17.30
2008,06,16,13,45,17.30
2008,06,16,13,46,17.30
2008,06,16,13,47,17.30
2008,06,16,13,48,17.30
2008,06,16,13,49,17.20
2008,06,16,13,50,17.20
2008,06,16,13,51,17.20
2008,06,16,13,52,17.10
2008,06,16,13,53,17.10
2008,06,16,13,54,17.10
2008,06,16,13,55,17.10
2008,06,16,13,56,17.10
2008,06,16,13,57,17.10
2008,06,16,13,58,17.10
2008,06,16,13,59,17.20
2008,06,16,14,00,17.30
2008,06,16,14,01,17.30
2008,06,16,14,02,17.20
2008,06,16,14,03,17.10
2008,06,16,14,04,17.10
2008,06,16,14,05,17.10
2008,06,16,14,06,17.30
2008,06,16,14,07,17.30
2008,06,16,14,08,17.30
2008,06,16,14,09,17.40
2008,06,16,14,10,17.40
2008,06,16,14,11,17.40
2008,06,16,14,12,17.60
2008,06,16,14,13,17.70
2008,06,16,14,14,17.70
2008,06,16,14,15,17.80
2008,06,16,14,16,17.80
2008,06,16,14,17,17.90
2008,06,16,14,18,17.90
2008,06,16,14,19,17.90
2008,06,16,14,20,18.00
2008,06,16,14,21,17.90
2008,06,16,14,22,18.00
2008,06,16,14,23,18.10
2008,06,16,14,24,18.20
2008,06,16,14,25,18.10
2008,06,16,14,26,18.10
2008,06,16,14,27,18.10
2008,06,16,14,28,18.00
2008,06,16,14,29,17.90
2008,06,16,14,30,17.90
2008,06,16,14,31,17.90
2008,06,16,14,32,17.80
2008,06,16,14,33,17.80
2008,06,16,14,34,17.90
2008,06,16,14,35,17.80
2008,06,16,14,36,18.00
2008,06,16,14,37,18.10
2008,06,16,14,38,17.90
2008,06,16,14,39,17.90
2008,06,16,14,40,17.90
2008,06,16,14,41,17.90
2008,06,16,14,42,17.90
2008,06,16,14,43,17.90
2008,06,16,14,44,17.90
2008,06,16,14,45,17.90
2008,06,16,14,46,17.90
2008,06,16,14,47,17.90
2008,06,16,14,48,17.90
2008,06,16,14,49,17.90
2008,06,16,14,50,17.90
2008,06,16,14,51,18.10
2008,06,16,14,52,18.30
2008,06,16,14,53,18.40
2008,06,16,14,54,18.40
2008,06,16,14,55,18.60
2008,06,16,14,56,18.70
2008,06,16,14,57,18.70
2008,06,16,14,58,18.60
2008,06,16,14,59,18.50
2008,06,16,15,00,18.50
2008,06,16,15,01,18.40
2008,06,16,15,02,18.50
2008,06,16,15,03,18.50
2008,06,16,15,04,18.60
2008,06,16,15,05,18.60
2008,06,16,15,06,18.60
2008,06,16,15,07,18.60
2008,06,16,15,08,18.60
2008,06,16,15,09,18.50
2008,06,16,15,10,18.40
2008,06,16,15,11,18.30
2008,06,16,15,12,18.20
2008,06,16,15,13,18.20
2008,06,16,15,14,18.20
2008,06,16,15,15,18.20
2008,06,16,15,16,18.20
2008,06,16,15,17,18.10
2008,06,16,15,18,18.10
2008,06,16,15,19,18.20
2008,06,16,15,20,18.10
2008,06,16,15,21,18.10
2008,06,16,15,22,18.10
2008,06,16,15,23,18.10
2008,06,16,15,24,18.20
2008,06,16,15,25,18.30
2008,06,16,15,26,18.40
2008,06,16,15,27,18.50
2008,06,16,15,28,18.50
2008,06,16,15,29,18.60
2008,06,16,15,30,18.70
2008,06,16,15,31,18.70
2008,06,16,15,32,18.80
2008,06,16,15,33,18.80
2008,06,16,15,34,18.90
2008,06,16,15,35,18.80
2008,06,16,15,36,18.80
2008,06,16,15,37,18.80
2008,06,16,15,38,18.90
2008,06,16,15,39,18.90
2008,06,16,15,40,18.90
2008,06,16,15,41,18.80
2008,06,16,15,42,18.90
2008,06,16,15,43,18.90
2008,06,16,15,44,18.90
2008,06,16,15,45,18.90
2008,06,16,15,46,18.90
2008,06,16,15,47,18.90
2008,06,16,15,48,19.00
2008,06,16,15,49,19.10
2008,06,16,15,50,19.20
2008,06,16,15,51,19.30
2008,06,16,15,52,19.40
2008,06,16,15,53,19.50
2008,06,16,15,54,19.60
2008,06,16,15,55,19.70
2008,06,16,15,56,19.80
2008,06,16,15,57,19.80
2008,06,16,15,58,19.80
2008,06,16,15,59,19.70
2008,06,16,16,00,19.70
2008,06,16,16,01,19.70
2008,06,16,16,02,19.80
2008,06,16,16,03,19.80
2008,06,16,16,04,19.80
2008,06,16,16,05,19.80
2008,06,16,16,06,19.80
2008,06,16,16,07,19.80
2008,06,16,16,08,19.70
2008,06,16,16,09,19.80
2008,06,16,16,10,19.80
2008,06,16,16,11,19.90
2008,06,16,16,12,19.90
2008,06,16,16,13,19.90
2008,06,16,16,14,19.90
2008,06,16,16,15,19.90
2008,06,16,16,16,19.90
2008,06,16,16,17,19.80
2008,06,16,16,18,19.70
2008,06,16,16,19,19.60
2008,06,16,16,20,19.50
2008,06,16,16,21,19.40
2008,06,16,16,22,19.30
2008,06,16,16,23,19.20
2008,06,16,16,24,19.10
2008,06,16,16,25,19.00
2008,06,16,16,26,18.90
2008,06,16,16,27,18.90
2008,06,16,16,28,18.90
2008,06,16,16,29,18.90
2008,06,16,16,30,18.90
2008,06,16,16,31,18.90
2008,06,16,16,32,18.90
2008,06,16,16,33,18.90
2008,06,16,16,34,19.00
2008,06,16,16,35,19.00
2008,06,16,16,36,19.10
2008,06,16,16,37,19.10
2008,06,16,16,38,19.20
2008,06,16,16,39,19.20
2008,06,16,16,40,19.20
2008,06,16,16,41,19.20
2008,06,16,16,42,19.20
2008,06,16,16,43,19.30
2008,06,16,16,44,19.30
2008,06,16,16,45,19.30
2008,06,16,16,46,19.30
2008,06,16,16,47,19.20
2008,06,16,16,48,19.20
2008,06,16,16,49,19.20
2008,06,16,16,50,19.20
2008,06,16,16,51,19.20
2008,06,16,16,52,19.30
2008,06,16,16,53,19.30
2008,06,16,16,54,19.30
2008,06,16,16,55,19.40
2008,06,16,16,56,19.60
2008,06,16,16,57,19.70
2008,06,16,16,58,19.80
2008,06,16,16,59,19.80
2008,06,16,17,00,19.80
2008,06,16,17,01,19.80
2008,06,16,17,02,19.80
2008,06,16,17,03,19.80
2008,06,16,17,04,19.80
2008,06,16,17,05,19.80
2008,06,16,17,06,19.70
2008,06,16,17,07,19.60
2008,06,16,17,08,19.50
2008,06,16,17,09,19.40
2008,06,16,17,10,19.30
2008,06,16,17,11,19.40
2008,06,16,17,12,19.40
2008,06,16,17,13,19.50
2008,06,16,17,14,19.50
2008,06,16,17,15,19.50
2008,06,16,17,16,19.50
2008,06,16,17,17,19.50
2008,06,16,17,18,19.50
2008,06,16,17,19,19.50
2008,06,16,17,20,19.50
2008,06,16,17,21,19.50
2008,06,16,17,22,19.50
2008,06,16,17,23,19.60
2008,06,16,17,24,19.60
2008,06,16,17,25,19.70
2008,06,16,17,26,19.80
2008,06,16,17,27,19.70
2008,06,16,17,28,19.60
2008,06,16,17,29,19.50
2008,06,16,17,30,19.40
2008,06,16,17,31,19.30
2008,06,16,17,32,19.20
2008,06,16,17,33,19.20
2008,06,16,17,34,19.10
2008,06,16,17,35,19.10
2008,06,16,17,36,19.10
2008,06,16,17,37,19.10
2008,06,16,17,38,19.10
2008,06,16,17,39,19.10
2008,06,16,17,40,19.10
2008,06,16,17,41,19.10
2008,06,16,17,42,19.10
2008,06,16,17,43,19.10
2008,06,16,17,44,19.10
2008,06,16,17,45,19.10
2008,06,16,17,46,19.10
2008,06,16,17,47,19.10
2008,06,16,17,48,19.10
2008,06,16,17,49,19.10
2008,06,16,17,50,19.10
2008,06,16,17,51,19.10
2008,06,16,17,52,19.10
2008,06,16,17,53,19.10
2008,06,16,17,54,19.10
2008,06,16,17,55,19.00
2008,06,16,17,56,18.90
2008,06,16,17,57,18.80
2008,06,16,17,58,18.70
2008,06,16,17,59,18.60
2008,06,16,18,00,18.60
2008,06,16,18,01,18.50
2008,06,16,18,02,18.40
2008,06,16,18,03,18.30